Погода в Полоцке

Погода в Полоцке : погода сейчас, прогноз погоды и архив. Всё, что Вы хотите узнать о погоде в Полоцке!

Хотите узнать прогноз погоды в Полоцке? Тогда Вам сюда: Погода в Полоцке

Поиск расширенной информации на нашем сайте:

Полезная информация:

Другие новости

Новости СМИ2

Главная страница сайта

Новости сайта

03.07.2017

Напоминаем, что на нашем специализированном сайте Метеоцентр.Азия вы можете получить высокодетализированные автоматические прогнозы погоды по пунктам России, СНГ и мира в авиационном формате (включающие направление и скорость ветра, видимость, явления погоды, количество и форму облачности, нижнюю и верхнюю границу облачности).

Рекомендуем:

Погода в Полоцке - сегодня

Время (UTC), дата Ветер
(°,м/с) 
Видим.   Явления Облачность Т
(°С)
Тd
(°С)
f(%) Тe
(°С)
Pmin
(гПа)
dP
(гПа)
Po
(мм)
O2
(г/м3)
Тmin Tmax R s Состояние
почвы
03 22.03.19 300 (СЗ) 4{10}  4300 м  слаб. дождь  10/10 270 м 
[Frnb|Ns]
+6.6 +5.5 93 +5  1015.3  -0.6  749  294           
06 22.03.19 330 (СЗ) 10 км  слаб. ливневой дождь  9/8 570 м кучево-дожд., средняя 
[Cb cap|Ac trans]
+5.2 +3 86 +4  1018.2  2.8  751  297  +5.2       
09 22.03.19 310 (СЗ) 3{12}  20000 м    3/3 600 м 
[Sc]
+6.6 -3.9 47 +6  1020.8  2.5  753  297           
12 22.03.19 340 (С) 4{11}  20000 м    1/0 верхняя 
[Ci ing]
+7.7 -7.1 34 +6  1021.7  754  296           
15 22.03.19 320 (СЗ) 20000 м    3/3 1000 м 
[Sc]
+6.7 -7.2 36 +6  1022.7  755  298           
18 22.03.19 330 (СЗ) 10 км    ясно 
+3.4 -7.8 44 +3  1025.2  2.2  756  302    +8.3       
21 22.03.19 340 (С) 10 км    ясно 
+0.3 -7.2 57 1026.7  1.2  757  306           
00 23.03.19 330 (СЗ) 10 км    ясно 
-1.5 -6.7 68 -1  1027.3  0.5  758  308           
03 23.03.19 340 (С) 10 км    ясно 
-2.4 -6.2 75 -2  1028.1  0.8  758  309           
06 23.03.19 340 (С) 15000 м    3/0 верхняя 
[Ci fib]
+0.4 -6.2 61 +1  1028.7  0.7  759  306  -3.5         
09 23.03.19 260 (З) 20000 м    3/0 верхняя 
[Ci ing]
+5.3 -4.7 48 +6  1027.6  -0.7  758  300           
12 23.03.19 230 (ЮЗ) 20000 м    4/0 верхняя 
[Ci ing]
+8.8 -7.4 31 +10  1024.5  -2.9  756  296           
15 23.03.19 230 (ЮЗ) 20000 м    10/0 верхняя 
[Ci ing]
+9 -7.4 31 +9  1021.9  -2.5  754  295           
18 23.03.19 180 (Ю) 10 км    8/0 верхняя 
[Ci ing]
+4.8 -6.8 43 +4  1020.1  -2  753  299    +10.1       
21 23.03.19 210 (ЮЗ) 10 км    9/0 средняя 
[Ac und]
+6.1 -7.3 38 +5  1017  -3  751  297           
00 24.03.19 260 (З) 9000 м  слаб. дождь  10/0 средняя 
[As op]
+6.8 -2.5 51 +7  1014.2  -2.7  749  295           
03 24.03.19 300 (СЗ) 10 км  {дождь}  ясно 
+4.4 +1.9 84 +5  1014  -0.4  748  296           
06 24.03.19 330 (СЗ) 15000 м  {дождь}  3/3 300 м 
[St]
+4.6 +0.7 76 +3  1014.6  0.6  749  297  +3.6    0.4     
09 24.03.19 290 (З) 20000 м    3/3 300 м 
[St]
+7.4 -1.9 52 +7  1014.4  749  294           
12 24.03.19 320 (СЗ) 20000 м    3/3 600 м 
[Sc]
+9.6 -3.8 39 +10  1013.7  -0.6  748  292           
15 24.03.19 300 (СЗ) 3{10}  20000 м    10/3 600 м верхняя 
[Sc|Cs]
+7.4 -6 38 +7  1013.2  -0.5  748  294           
18 24.03.19 270 (З) 10 км    ясно 
+4.5 -4.4 52 +4  1013.9  0.4  748  297    +10.1       
21 24.03.19 тихо ()   10 км    ясно 
+1.7 -3.8 67 +2  1013.5  -0.5  748  300           
00 25.03.19 тихо ()   10 км    ясно 
-0.5 -4.3 75 -1  1012.3  -1.3  747  302           
03 25.03.19 210 (ЮЗ) 10 км    3/0 средняя, верхняя 
[Ac trans|Ci fib]
-1.2 -4.4 79 -1  1010.8  -1.5  746  302           
Время (UTC), дата Ветер
(°,м/с) 
Видим.   Явления Облачность Т
(°С)
Тd
(°С)
f(%) Тe
(°С)
Pmin
(гПа)
dP
(гПа)
Po
(мм)
O2
(г/м3)
Тmin Tmax R s Состояние
почвы

Для получения пояснительной информации подведите курсор к названию столбца.

ПОГОДА в Полоцке - архив

Всё, что Вы хотите узнать о погоде в Полоцке - удобно и подробно!

Выберите нужную дату (начиная с 1 января 2018* года) и нажмите кнопку "Найти".
Будут отображены архивные сводки погоды по пункту Полоцк, начиная с указанной даты.


Отображать данные в формате CSV (для использования в таблицах Excel)


Внимание! Наш архив погоды предназначен исключительно для личного некоммерческого использования в познавательных целях. Если Вам необходимы официальные справки о состоянии погоды (для производственных, юридических, коммерческих и т.п. целей), обращайтесь в органы Росгидромета.

*Примечание: данная дата относится к архиву по метеостанциям СССР (Россия, СНГ, Балтия).
Архив по метеостанциям Зарубежной Европы и Азии (кроме Китая) хранится 10 дней, по другим регионам земного шара (Китай, Африка, Америка, Австралия, Океания) - 1 день.

Полоцк - район местоположения метеостанции


Название, широта, долгота, высота метеостанции:
Полоцк 55.5°ш. 28.8°д. 133 м над ур. моря [Беларусь]

Дополнительная информация

В oтличие oт бoльшинства пoгoдных сайтoв мы публикуем пoдрoбную метеoинфoрмацию в детальнoм прoфессиoнальнoм фoрмате.

Характеристики температуры и влажнoсти вoздуха измеряются на высoте 2 м в тени вдали oт зданий и деревьев.
Скoрoсть ветра измеряется на высoте 10 м (на урoвне рoста челoвека скoрoсть ветра ниже в 1.5-2 раза). Если метеoстанция нахoдится в гoрoде или в лесу, тo скoрoсть ветра занижена на 2-4 м/с пo сравнению с oткрытым местoм. Скoрoсть ветра над акватoриями крупных рек и oзёр, а также на вершинах хoлмoв на 2-5 м/с выше, чем в oбычных услoвиях.
Атмoсфернoе давление в разных тoчках местнoсти мoжет значительнo oтличаться oт давления на метеoстанции, в зависимoсти oт услoвий рельефа (при пoдъёме на 10 м давление пoнижается примернo на 1 мм рт.ст.).